Location: Austin
(30.3000°N, 97.7500°W)
Time: 06:03:24
(UTC-05:00)

CZ-4C R/B - Pass Details

Date: 16 June 2025
Orbit: 499 x 1484 km, 63.4° (Epoch: 07 July)

Event Time Altitude Azimuth Distance (km) Brightness Sun altitude
Exits shadow 05:00:05 - 159° (SSE) 2,233 4.2 -16.7°
Reaches altitude 10° 05:01:56 10° 140° (SE) 1,756 3.9 -16.4°
Maximum altitude 05:03:59 14° 107° (ESE) 1,576 4.1 -16.0°
Drops below altitude 10° 05:06:11 10° 75° (ENE) 1,904 5.1 -15.7°
Sets 05:09:34 0° 50° (NE) 2,974 7.0 -15.1°
